COOK1: Arkansas River Nr Coolidge, KS

                                SHEF ID:       COOK1     ARKANSAS R NR COOLIDGE, KS
STATION TYPE:
Regulating: Stage = 8.00, Flow = 2050

PRECIP STAGE STAGE(2) RIV-FLOW WTR-TEMP CONDUCT BAT-LOAD
in ft ft cfs F umho/cm volt
Ccp-Rev Ccp-Rev Ccp-Rev Ccp-Rev Ccp-Rev Ccp-Rev Ccp-Rev
(America/Chicago)
07/02 00:00 0.00 2.38 2.51 44 75.06 6251 12.95
07/02 01:00 0.00 2.38 2.53 44 74.34 6275 12.89
07/02 02:00 0.00 2.38 2.53 44 73.80 6309 12.89
07/02 03:00 0.00 2.37 2.53 44 73.17 6379 12.89
07/02 04:00 0.00 2.40 2.55 46 72.39 6367 12.89
07/02 05:00 0.00 2.39 2.55 45 71.67 6260 12.89
07/02 06:00 0.00 2.40 2.54 46 71.02 6235 12.83
07/02 07:00 0.00 2.39 2.54 45 70.23 6250 12.83
07/02 08:00 0.00 2.40 2.54 46 69.69 6235 12.83
07/02 09:00 0.00 2.39 2.55 45 70.14 6228 13.00
07/02 10:00 0.00 2.40 2.55 46 70.92 6235 13.36
07/02 11:00 0.00 2.40 2.55 46 72.84 6251 13.48
07/02 12:00 0.00 2.39 2.54 45 76.15 6273 13.71
07/02 13:00 0.00 2.39 2.55 45 79.20 6286 13.77
07/02 14:00 0.00 2.40 2.55 46 81.88 6295 13.65
07/02 15:00 0.00 2.39 2.54 45 84.15 6305 13.24
07/02 16:00 0.00 2.39 2.52 45 85.71 6318 13.36
07/02 17:00 0.00 2.38 2.52 44 85.66 6325 13.48
07/02 18:00 0.00 2.35 2.51 42 85.26 6336 13.30
07/02 19:00 0.00 2.36 2.49 43 84.11 6363 13.18
07/02 20:00 0.00 2.35 2.49 42 82.81 6410 13.18
07/02 21:00 0.00 2.35 2.50 42 80.64 6439 13.07
07/02 22:00 0.00 2.35 2.49 42 78.55 6455 13.00
07/02 23:00 ---- ---- ---- ---- ---- ---- ----
Data processed at Wed 03Jul2024 04:30 GMT

Parsing this webpage?

Checkout our new Data API! CWMSDataAPI (CDA)

Timeseries IDs (TSIDs)

TSIDs used from left to right in the data table
COOL.Precip-Inc.Total.1Hour.1Hour.Ccp-Rev
COOL.Stage.Inst.1Hour.0.Ccp-Rev
COOL.Stage-Alt.Inst.1Hour.0.Ccp-Rev
COOL.Flow.Inst.1Hour.0.Ccp-Rev
COOL.Temp-Water.Inst.1Hour.0.Ccp-Rev
COOL.Cond.Inst.1Hour.0.Ccp-Rev
COOL.Volt-Battery Load.Inst.1Hour.0.Ccp-Rev

                            

All information presented herein is the property of the government of the United States of America and may be revised or deleted at any time without prior notice. Dissemination of this information without the expressed written consent of the Public Affairs Office, Tulsa District U.S. Army Corps of Engineers is strictly prohibited. These data are gathered electronically and, as presented, have NOT undergone any form of quality control. These data are NOT guaranteed to be valid or correct.